VIR4C KJFK-EGLL

Flight info

Callsign VIR4C
Flight time N/A
Altitude 37000
Route BETTE DCT ACK DCT TUSKY N501B ALLRY/M085F390 NATV GISTI/N0488F390 DCT EVRIN DCT JETZI DCT AMFUL DCT ORZEB/N0465F230 P2 SIRIC
Aircraft A35K/H-SDE2E3GHIJ3J4J5LM1ORWXY/LB1D1

Departure

Time 2026-05-09 03:03
Airport John F. Kennedy International Airport (KJFK)

Arrival

Time N/A
Airport London Heathrow Airport (EGLL)
Time Latitude Longitude Altitude Speed Heading
2026-05-09 02:19 40.64389 -73.77920 29 ft 0 kts 239°
2026-05-09 02:44 40.64393 -73.77910 28 ft 4 kts 239°
2026-05-09 02:45 40.64407 -73.77879 28 ft 4 kts 239°
2026-05-09 02:45 40.64418 -73.77854 27 ft 4 kts 241°
2026-05-09 02:45 40.64427 -73.77822 26 ft 4 kts 265°
2026-05-09 02:45 40.64425 -73.77788 27 ft 4 kts 292°
2026-05-09 02:46 40.64413 -73.77758 26 ft 3 kts 300°
2026-05-09 02:46 40.64399 -73.77729 26 ft 4 kts 309°
2026-05-09 02:46 40.64380 -73.77704 27 ft 4 kts 321°
2026-05-09 02:46 40.64358 -73.77684 26 ft 4 kts 330°
2026-05-09 02:47 40.64339 -73.77670 26 ft 4 kts 331°
2026-05-09 02:47 40.64315 -73.77652 27 ft 4 kts 331°
2026-05-09 02:47 40.64292 -73.77635 27 ft 4 kts 330°
2026-05-09 02:47 40.64268 -73.77617 27 ft 4 kts 330°
2026-05-09 02:48 40.64244 -73.77600 27 ft 4 kts 330°
2026-05-09 02:48 40.64221 -73.77583 27 ft 4 kts 330°
2026-05-09 02:48 40.64197 -73.77565 26 ft 4 kts 330°
2026-05-09 02:48 40.64174 -73.77548 27 ft 4 kts 330°
2026-05-09 02:49 40.64150 -73.77531 27 ft 4 kts 330°
2026-05-09 02:49 40.64130 -73.77516 27 ft 4 kts 333°
2026-05-09 02:49 40.64105 -73.77505 27 ft 4 kts
2026-05-09 02:49 40.64079 -73.77513 28 ft 4 kts 26°
2026-05-09 02:50 40.64059 -73.77528 27 ft 4 kts 31°
2026-05-09 02:50 40.64038 -73.77544 27 ft 1 kts 31°
2026-05-09 02:50 40.64037 -73.77545 27 ft 0 kts 31°
2026-05-09 02:53 40.64048 -73.77536 29 ft 4 kts 31°
2026-05-09 02:54 40.64063 -73.77524 29 ft 0 kts 31°
2026-05-09 02:54 40.64065 -73.77523 29 ft 1 kts 31°
2026-05-09 02:54 40.64079 -73.77506 29 ft 4 kts 52°
2026-05-09 02:54 40.64080 -73.77468 28 ft 5 kts 103°
2026-05-09 02:55 40.64052 -73.77427 28 ft 6 kts 162°
2026-05-09 02:55 40.64006 -73.77439 28 ft 8 kts 202°
2026-05-09 02:55 40.63950 -73.77480 28 ft 11 kts 210°
2026-05-09 02:55 40.63874 -73.77541 30 ft 15 kts 211°
2026-05-09 02:56 40.63775 -73.77617 28 ft 17 kts 211°
2026-05-09 02:56 40.63669 -73.77699 30 ft 19 kts 210°
2026-05-09 02:56 40.63552 -73.77791 27 ft 20 kts 211°
2026-05-09 02:56 40.63435 -73.77885 30 ft 20 kts 212°
2026-05-09 02:57 40.63360 -73.77908 31 ft 8 kts 143°
2026-05-09 02:57 40.63328 -73.77850 32 ft 8 kts 122°
2026-05-09 02:57 40.63297 -73.77783 33 ft 9 kts 121°
2026-05-09 02:57 40.63259 -73.77699 32 ft 12 kts 121°
2026-05-09 02:58 40.63214 -73.77600 35 ft 13 kts 120°
2026-05-09 02:58 40.63166 -73.77493 36 ft 14 kts 120°
2026-05-09 02:58 40.63109 -73.77367 34 ft 18 kts 121°
2026-05-09 02:58 40.63041 -73.77218 33 ft 19 kts 121°
2026-05-09 02:59 40.62986 -73.77101 29 ft 10 kts 132°
2026-05-09 02:59 40.62933 -73.77102 29 ft 8 kts 196°
2026-05-09 02:59 40.62899 -73.77124 30 ft 0 kts 210°
2026-05-09 03:00 40.62898 -73.77125 30 ft 0 kts 210°
2026-05-09 03:00 40.62886 -73.77134 30 ft 4 kts 210°
2026-05-09 03:01 40.62849 -73.77162 30 ft 8 kts 210°
2026-05-09 03:01 40.62822 -73.77211 29 ft 6 kts 271°
2026-05-09 03:01 40.62840 -73.77266 30 ft 6 kts 299°
2026-05-09 03:01 40.62845 -73.77278 30 ft 0 kts 299°
2026-05-09 03:02 40.62849 -73.77287 30 ft 6 kts 299°
2026-05-09 03:02 40.62972 -73.77558 34 ft 70 kts 301°
2026-05-09 03:02 40.63339 -73.78367 28 ft 134 kts 301°
2026-05-09 03:02 40.63898 -73.79591 233 ft 169 kts 302°
2026-05-09 03:03 40.64533 -73.80961 757 ft 179 kts 293°
2026-05-09 03:03 40.64717 -73.82576 1395 ft 186 kts 261°
2026-05-09 03:03 40.64129 -73.84123 1869 ft 199 kts 224°
2026-05-09 03:03 40.62953 -73.85137 2469 ft 208 kts 212°
2026-05-09 03:04 40.61710 -73.86241 2965 ft 222 kts 223°
2026-05-09 03:04 40.60537 -73.87569 3756 ft 223 kts 220°
2026-05-09 03:04 40.59148 -73.88252 4951 ft 210 kts 188°
2026-05-09 03:04 40.57691 -73.87928 5807 ft 220 kts 169°
2026-05-09 03:05 40.56264 -73.87049 6427 ft 232 kts 162°
2026-05-09 03:05 40.54824 -73.86102 6992 ft 238 kts 165°
2026-05-09 03:05 40.53248 -73.85393 7505 ft 244 kts 176°
2026-05-09 03:05 40.51526 -73.84860 7867 ft 265 kts 176°
2026-05-09 03:06 40.49694 -73.84089 8395 ft 287 kts 165°
2026-05-09 03:06 40.47902 -73.82789 9143 ft 301 kts 152°
2026-05-09 03:06 40.46277 -73.80969 9956 ft 313 kts 140°
2026-05-09 03:06 40.44898 -73.78675 10601 ft 329 kts 127°
2026-05-09 03:07 40.43830 -73.75903 10944 ft 355 kts 113°
2026-05-09 03:07 40.43198 -73.72627 11002 ft 387 kts 97°
2026-05-09 03:07 40.43178 -73.68991 10998 ft 408 kts 82°
2026-05-09 03:07 40.43843 -73.65415 10994 ft 410 kts 66°
2026-05-09 03:08 40.45152 -73.62123 11000 ft 405 kts 51°
2026-05-09 03:08 40.46806 -73.59153 10993 ft 403 kts 47°
2026-05-09 03:08 40.48513 -73.56226 10994 ft 404 kts 47°
2026-05-09 03:08 40.50159 -73.53222 10992 ft 407 kts 53°
2026-05-09 03:09 40.51377 -73.49850 10991 ft 413 kts 69°
2026-05-09 03:09 40.52044 -73.46163 10994 ft 415 kts 77°
2026-05-09 03:09 40.52478 -73.42408 10996 ft 417 kts 81°
2026-05-09 03:09 40.52803 -73.38606 11122 ft 421 kts 82°
2026-05-09 03:10 40.53087 -73.34808 11876 ft 423 kts 83°
2026-05-09 03:10 40.53373 -73.30965 12794 ft 424 kts 82°
2026-05-09 03:10 40.53673 -73.27101 13614 ft 426 kts 81°
2026-05-09 03:10 40.53995 -73.23208 14317 ft 430 kts 81°
2026-05-09 03:11 40.54334 -73.19288 14959 ft 435 kts 81°
2026-05-09 03:11 40.54684 -73.15318 15591 ft 440 kts 81°
2026-05-09 03:11 40.55040 -73.11294 16187 ft 445 kts 81°
2026-05-09 03:11 40.55399 -73.07227 16817 ft 450 kts 81°
2026-05-09 03:12 40.55805 -73.03180 17437 ft 454 kts 77°
2026-05-09 03:12 40.56543 -72.99137 18058 ft 457 kts 71°
2026-05-09 03:12 40.57458 -72.95105 18624 ft 462 kts 69°
2026-05-09 03:12 40.58456 -72.91070 19152 ft 467 kts 68°
2026-05-09 03:13 40.60582 -72.82884 20266 ft 478 kts 67°
2026-05-09 03:13 40.61671 -72.78712 20831 ft 484 kts 66°
2026-05-09 03:13 40.62762 -72.74504 21385 ft 489 kts 66°
2026-05-09 03:14 40.63860 -72.70233 21927 ft 495 kts 66°
2026-05-09 03:14 40.64949 -72.65971 22475 ft 500 kts 66°
2026-05-09 03:14 40.66058 -72.61610 23066 ft 506 kts 66°
2026-05-09 03:14 40.67176 -72.57194 23617 ft 511 kts 66°
2026-05-09 03:15 40.68304 -72.52729 24075 ft 515 kts 66°
2026-05-09 03:15 40.69437 -72.48237 24568 ft 519 kts 66°
2026-05-09 03:15 40.70578 -72.43701 25050 ft 523 kts 66°
2026-05-09 03:15 40.71727 -72.39128 25537 ft 527 kts 66°
2026-05-09 03:16 40.72884 -72.34520 26019 ft 531 kts 66°
2026-05-09 03:16 40.74031 -72.29938 26474 ft 535 kts 66°
2026-05-09 03:16 40.75202 -72.25255 26950 ft 539 kts 66°
2026-05-09 03:16 40.76379 -72.20538 27399 ft 543 kts 66°
2026-05-09 03:17 40.77561 -72.15794 27852 ft 547 kts 66°
2026-05-09 03:17 40.78751 -72.11004 28307 ft 551 kts 66°
2026-05-09 03:17 40.79946 -72.06184 28885 ft 553 kts 66°
2026-05-09 03:17 40.81142 -72.01346 29334 ft 556 kts 66°
2026-05-09 03:18 40.82346 -71.96472 29715 ft 560 kts 66°
2026-05-09 03:18 40.83553 -71.91574 30073 ft 564 kts 66°
2026-05-09 03:18 40.84753 -71.86698 30333 ft 568 kts 67°
2026-05-09 03:18 40.85976 -71.81714 30604 ft 572 kts 67°
2026-05-09 03:19 40.87202 -71.76707 30948 ft 574 kts 67°
2026-05-09 03:19 40.88430 -71.71676 31273 ft 576 kts 67°
2026-05-09 03:19 40.89661 -71.66624 31592 ft 578 kts 67°
2026-05-09 03:19 40.90895 -71.61552 31924 ft 580 kts 67°
2026-05-09 03:20 40.92129 -71.56465 32345 ft 581 kts 67°
2026-05-09 03:20 40.93345 -71.51442 32713 ft 582 kts 67°
2026-05-09 03:20 40.94577 -71.46343 32977 ft 585 kts 67°
2026-05-09 03:20 40.95816 -71.41209 33273 ft 587 kts 68°
2026-05-09 03:21 40.97057 -71.36056 33567 ft 588 kts 68°
2026-05-09 03:21 40.98299 -71.30886 33863 ft 590 kts 68°
2026-05-09 03:21 40.99542 -71.25698 34137 ft 592 kts 68°
2026-05-09 03:21 41.00782 -71.20507 34472 ft 591 kts 68°
2026-05-09 03:22 41.02014 -71.15333 34880 ft 588 kts 68°
2026-05-09 03:22 41.03238 -71.10181 35267 ft 585 kts 68°
2026-05-09 03:22 41.04455 -71.05053 35732 ft 581 kts 69°
2026-05-09 03:22 41.05638 -71.00050 36195 ft 576 kts 69°
2026-05-09 03:23 41.06835 -70.94987 36499 ft 576 kts 69°
2026-05-09 03:23 41.08032 -70.89914 36699 ft 576 kts 69°
2026-05-09 03:23 41.09228 -70.84841 36909 ft 577 kts 69°
2026-05-09 03:23 41.10424 -70.79758 37014 ft 580 kts 69°
2026-05-09 03:24 41.12834 -70.69472 37024 ft 585 kts 69°
2026-05-09 03:24 41.15218 -70.59232 37022 ft 584 kts 69°
2026-05-09 03:25 41.17607 -70.48919 37022 ft 585 kts 69°
2026-05-09 03:25 41.19989 -70.38601 37021 ft 585 kts 69°
2026-05-09 03:26 41.22365 -70.28261 37022 ft 585 kts 69°
2026-05-09 03:26 41.24733 -70.17911 37026 ft 585 kts 69°
2026-05-09 03:27 41.27200 -70.07707 37046 ft 581 kts 62°
2026-05-09 03:27 41.29029 -70.02986 37028 ft 569 kts 51°
2026-05-09 03:27 41.31401 -69.98866 37028 ft 555 kts 38°
2026-05-09 03:28 41.36816 -69.91630 37026 ft 550 kts 35°
2026-05-09 03:28 41.42395 -69.84654 37009 ft 550 kts 34°
2026-05-09 03:29 41.47972 -69.77684 37009 ft 549 kts 36°
2026-05-09 03:29 41.53470 -69.70735 37004 ft 549 kts 36°
2026-05-09 03:30 41.58996 -69.63704 37038 ft 549 kts 36°
2026-05-09 03:30 41.64509 -69.56665 37007 ft 547 kts 37°
2026-05-09 03:31 41.70005 -69.49631 37006 ft 546 kts 37°
2026-05-09 03:31 41.75453 -69.42647 37030 ft 546 kts 37°
2026-05-09 03:32 41.80928 -69.35608 37006 ft 545 kts 37°
2026-05-09 03:32 41.86390 -69.28569 37006 ft 544 kts 37°
2026-05-09 03:33 41.91847 -69.21520 37049 ft 544 kts 37°
2026-05-09 03:33 41.97281 -69.14480 37008 ft 543 kts 37°
2026-05-09 03:34 42.02678 -69.07475 37009 ft 543 kts 37°
2026-05-09 03:34 42.08108 -69.00408 37029 ft 543 kts 38°
2026-05-09 03:35 42.13523 -68.93342 37025 ft 543 kts 38°
2026-05-09 03:35 42.16233 -68.89800 37257 ft 542 kts 38°
2026-05-09 03:35 42.18933 -68.86264 37546 ft 540 kts 38°
2026-05-09 03:36 42.21594 -68.82776 37749 ft 541 kts 38°
2026-05-09 03:36 42.24289 -68.79240 37945 ft 541 kts 38°
2026-05-09 03:36 42.26983 -68.75700 38212 ft 540 kts 38°
2026-05-09 03:36 42.29672 -68.72161 38397 ft 540 kts 38°
2026-05-09 03:37 42.32361 -68.68619 38558 ft 540 kts 38°
2026-05-09 03:37 42.35050 -68.65073 38708 ft 540 kts 38°
2026-05-09 03:37 42.37739 -68.61523 38848 ft 540 kts 38°
2026-05-09 03:37 42.40426 -68.57971 38970 ft 540 kts 39°
2026-05-09 03:38 42.45753 -68.50914 38986 ft 538 kts 39°
2026-05-09 03:38 42.51104 -68.43807 38993 ft 539 kts 39°
2026-05-09 03:39 42.56451 -68.36688 38989 ft 538 kts 39°
2026-05-09 03:39 42.61773 -68.29583 38989 ft 537 kts 39°
2026-05-09 03:40 42.67055 -68.22514 38993 ft 536 kts 39°
2026-05-09 03:40 42.72369 -68.15386 38988 ft 537 kts 39°
2026-05-09 03:41 42.77681 -68.08242 38989 ft 537 kts 39°
2026-05-09 03:41 42.82984 -68.01091 38989 ft 537 kts 39°
2026-05-09 03:42 42.88283 -67.93927 38984 ft 536 kts 40°
2026-05-09 03:42 42.93532 -67.86811 38983 ft 535 kts 40°
2026-05-09 03:43 42.98811 -67.79638 39000 ft 535 kts 40°
2026-05-09 03:43 43.04081 -67.72460 38982 ft 534 kts 40°
2026-05-09 03:44 43.09333 -67.65286 38982 ft 534 kts 40°
2026-05-09 03:44 43.14550 -67.58142 38999 ft 534 kts 40°
2026-05-09 03:45 43.19794 -67.50943 38976 ft 533 kts 40°
2026-05-09 03:45 43.25029 -67.43737 38980 ft 533 kts 40°
2026-05-09 03:46 43.30260 -67.36520 38983 ft 533 kts 41°
2026-05-09 03:46 43.35445 -67.29346 38974 ft 533 kts 41°
2026-05-09 03:47 43.40667 -67.22102 38971 ft 533 kts 41°
2026-05-09 03:47 43.45887 -67.14843 38975 ft 533 kts 41°
2026-05-09 03:48 43.51096 -67.07580 38966 ft 533 kts 41°
2026-05-09 03:48 43.56238 -67.00291 38959 ft 535 kts 45°
2026-05-09 03:49 43.61050 -66.92432 38972 ft 536 kts 47°
2026-05-09 03:49 43.65781 -66.84484 38957 ft 536 kts 47°
2026-05-09 03:50 43.70499 -66.76503 38955 ft 536 kts 47°
2026-05-09 03:50 43.75186 -66.68568 38949 ft 536 kts 47°
2026-05-09 03:51 43.79899 -66.60576 38946 ft 536 kts 47°
2026-05-09 03:51 43.84606 -66.52577 38940 ft 536 kts 47°
2026-05-09 03:52 43.89311 -66.44557 38946 ft 536 kts 47°